TimeCST,TemperatureF,Dew PointF,Humidity,Sea Level PressureIn,VisibilityMPH,Wind Direction,Wind SpeedMPH,Gust SpeedMPH,PrecipitationIn,Events,Conditions,WindDirDegrees,DateUTC
12:53 AM,25.0,17.1,72,30.08,9.0,WSW,11.5,-,N/A,,Overcast,240,2013-01-03 06:53:00
1:53 AM,25.0,18.0,75,30.08,8.0,WSW,12.7,-,0.00,,Overcast,240,2013-01-03 07:53:00
2:42 AM,24.8,17.6,74,30.05,8.0,WSW,10.4,-,N/A,,Overcast,250,2013-01-03 08:42:00
2:53 AM,25.0,19.0,78,30.08,8.0,WSW,10.4,-,N/A,,Overcast,250,2013-01-03 08:53:00
3:53 AM,25.0,19.0,78,30.08,5.0,West,12.7,-,N/A,,Haze,260,2013-01-03 09:53:00
4:53 AM,25.0,18.0,75,30.08,5.0,West,11.5,-,N/A,,Haze,270,2013-01-03 10:53:00
5:08 AM,24.8,19.4,80,30.05,5.0,West,8.1,-,N/A,,Haze,260,2013-01-03 11:08:00
5:15 AM,24.8,19.4,80,30.05,5.0,West,11.5,-,N/A,,Haze,260,2013-01-03 11:15:00
5:53 AM,25.0,19.0,78,30.09,5.0,West,10.4,-,N/A,,Haze,260,2013-01-03 11:53:00
6:06 AM,24.8,19.4,80,30.07,5.0,West,10.4,-,N/A,,Haze,260,2013-01-03 12:06:00
6:42 AM,24.8,19.4,80,30.07,5.0,West,10.4,-,N/A,,Haze,260,2013-01-03 12:42:00
6:53 AM,26.1,19.9,78,30.11,4.0,West,11.5,-,N/A,,Haze,260,2013-01-03 12:53:00
7:53 AM,26.1,19.9,78,30.13,4.0,West,12.7,-,N/A,,Haze,280,2013-01-03 13:53:00
8:53 AM,26.1,19.9,78,30.14,4.0,West,12.7,-,N/A,,Haze,270,2013-01-03 14:53:00
9:53 AM,27.0,19.0,72,30.16,6.0,West,17.3,-,N/A,,Haze,280,2013-01-03 15:53:00
10:53 AM,27.0,19.9,75,30.17,6.0,West,15.0,23.0,N/A,,Haze,280,2013-01-03 16:53:00
11:53 AM,28.0,19.0,69,30.16,6.0,West,15.0,21.9,N/A,,Haze,280,2013-01-03 17:53:00
12:53 PM,28.0,19.0,69,30.16,6.0,WNW,12.7,19.6,N/A,,Haze,290,2013-01-03 18:53:00
1:53 PM,27.0,19.0,72,30.17,6.0,West,12.7,-,N/A,,Haze,270,2013-01-03 19:53:00
2:53 PM,27.0,19.0,72,30.18,5.0,West,13.8,-,N/A,,Haze,270,2013-01-03 20:53:00
3:00 PM,26.6,19.4,74,30.15,5.0,West,12.7,-,N/A,,Haze,270,2013-01-03 21:00:00
3:53 PM,27.0,18.0,69,30.20,6.0,West,10.4,-,N/A,,Haze,270,2013-01-03 21:53:00
4:53 PM,26.1,18.0,71,30.22,6.0,West,11.5,-,N/A,,Haze,280,2013-01-03 22:53:00
5:53 PM,24.1,17.1,75,30.24,7.0,West,13.8,-,N/A,,Scattered Clouds,270,2013-01-03 23:53:00
6:53 PM,21.9,16.0,78,30.26,7.0,West,11.5,-,N/A,,Mostly Cloudy,260,2013-01-04 00:53:00
7:53 PM,19.0,14.0,81,30.25,7.0,WSW,9.2,-,N/A,,Partly Cloudy,250,2013-01-04 01:53:00
8:53 PM,19.0,12.9,77,30.24,7.0,West,12.7,-,N/A,,Clear,260,2013-01-04 02:53:00
9:53 PM,18.0,12.0,78,30.24,7.0,West,12.7,-,N/A,,Clear,260,2013-01-04 03:53:00
10:53 PM,17.1,10.9,77,30.24,8.0,West,13.8,-,N/A,,Clear,260,2013-01-04 04:53:00
11:53 PM,16.0,10.0,77,30.22,9.0,WSW,13.8,-,N/A,,Clear,240,2013-01-04 05:53:00